Notices

What's New in latest Release from April 7th, 2021:

- Updated Glossary, including Speed of Maximum Gust, and Total Hourly Precipitation

- Updated national and regional climate services offices contacts and prices information

- Addition of station inventory lists for 1981-2010, 1971-2000, and 1961-1990 Normals.

If you haven't already, please take our survey and provide feedback about our website: https://eccc.sondage-survey.ca/f/LanguageSelection.aspx?s=442ca660-fcf1-47c0-95a9-59707d6fd709

Hourly Data Report for April 14, 2018

MIRAMICHI RCS
NEW BRUNSWICK
Current Station Operator: ECCC - MSC

47°00'34.000" N
65°27'54.000" W
33.00 m
8100989
71744
ACQ

Download Data

Hourly Data (April 2018)
Hourly Data Report for April 14, 2018
TIME
LST
Temp Definition
°C
Dew Point Definition
°C
Rel Hum Definition
%
Precip. Amount Definition
mm

Wind Dir Definition
10's deg

Wind Spd Definition
km/h
Visibility Definition
km
Stn Press Definition
kPa
Hmdx Definition


Wind Chill Definition


Weather Definition


00:00 1.3 -2.1 78 0.0 26 7   100.69     LegendNANA
01:00 1.9 -1.2 80 0.0 24 11   100.60     LegendNANA
02:00 1.3 -1.5 82 0.0 28 7   100.60     LegendNANA
03:00 1.5 -1.6 80 0.0 27 11   100.57     LegendNANA
04:00 1.2 -2.5 77 0.0 26 10   100.59     LegendNANA
05:00 1.4 -3.7 69 0.0 30 8   100.69     LegendNANA
06:00 1.1 -8.4 49 0.0 32 11   100.77     LegendNANA
07:00 0.7 -9.1 48 0.0 32 15   100.89     LegendNANA
08:00 0.2 -10.1 46 0.0 32 16   100.98     LegendNANA
09:00 -0.4 -11.7 42 0.0 31 23   101.08   -6 LegendNANA
10:00 -0.7 -14.2 35 0.0 29 28   101.13   -7 LegendNANA
11:00 -1.1 -15.7 32 0.0 30 25   101.19   -7 LegendNANA
12:00 -1.9 -18.9 26 0.0 30 31   101.25   -9 LegendNANA
13:00 -1.5 -17.8 28 0.0 29 31   101.27   -9 LegendNANA
14:00 -1.1 -18.8 25 0.0 31 24   101.39   -7 LegendNANA
15:00 -1.1 -18.8 25 0.0 32 27   101.46   -8 LegendNANA
16:00 -1.6 -17.6 28 0.0 30 26   101.58   -8 LegendNANA
17:00 -1.9 -18.5 27 0.0 31 25   101.73   -8 LegendNANA
18:00 -2.5 -19.5 26 0.0 33 17   101.90   -8 LegendNANA
19:00 -3.6 -19.5 28 0.0 32 16   102.09   -9 LegendNANA
20:00 -4.6 -18.6 33 0.0 33 14   102.23   -10 LegendNANA
21:00 -5.3 -18.5 35 0.0 31 13   102.30   -10 LegendNANA
22:00 -6.0 -18.3 37 0.0 31 16   102.37   -12 LegendNANA
23:00 -6.4 -18.5 38 0.0 30 15   102.46   -12 LegendNANA

Notes on Data Quality.

Legend

  • E = Estimated
  • M = Missing
  • NA = Not Available*
  • [empty] = Indicates an unobserved value
Date modified: